Hourly Weather Godziszka

Today, 20 January, Wednesday

Time Temperature Precipitation Wind Pressure Humidity
00:00 -4°C° 0.7 mm 4 mps 715 mmHg 94%
01:00 -3°C° 0.7 mm 4 mps 715 mmHg 95%
02:00 -3°C° 0.8 mm 4 mps 715 mmHg 96%
03:00 -1°C° 0.8 mm 3 mps 715 mmHg 96%
04:00 0°C° 0.8 mm 3 mps 715 mmHg 96%
05:00 0°C° 0.3 mm 3 mps 715 mmHg 96%
06:00 0°C° 0.3 mm 3 mps 715 mmHg 97%
07:00 +1°C° 0.3 mm 3 mps 716 mmHg 97%
08:00 +1°C° 0 mm 3 mps 716 mmHg 97%
09:00 +1°C° 0 mm 3 mps 716 mmHg 97%
10:00 0°C° 0 mm 4 mps 716 mmHg 98%
11:00 +1°C° 0 mm 4 mps 716 mmHg 97%
12:00 +1°C° 0 mm 4 mps 716 mmHg 97%
13:00 +1°C° 0 mm 4 mps 716 mmHg 96%
14:00 +1°C° 0 mm 4 mps 716 mmHg 94%
15:00 0°C° 0 mm 4 mps 716 mmHg 91%
16:00 +1°C° 0 mm 3 mps 716 mmHg 88%
17:00 +1°C° 0 mm 3 mps 716 mmHg 87%
18:00 0°C° 0 mm 3 mps 716 mmHg 85%
19:00 0°C° 0 mm 3 mps 716 mmHg 84%
20:00 0°C° 0 mm 3 mps 715 mmHg 85%
21:00 -1°C° 0 mm 3 mps 715 mmHg 86%
22:00 -1°C° 0 mm 3 mps 715 mmHg 87%
23:00 -1°C° 0 mm 3 mps 715 mmHg 88%

Tomorrow, 21 January, Thursday

Time Temperature Precipitation Wind Pressure Humidity
00:00 -1°C° 0 mm 3 mps 715 mmHg 89%
01:00 -1°C° 0 mm 3 mps 715 mmHg 90%
02:00 -1°C° 0 mm 2 mps 714 mmHg 90%
03:00 -1°C° 0 mm 2 mps 714 mmHg 90%
04:00 -1°C° 0 mm 2 mps 714 mmHg 90%
05:00 -1°C° 0 mm 2 mps 714 mmHg 89%
06:00 -1°C° 0 mm 2 mps 714 mmHg 88%
07:00 +1°C° 0 mm 2 mps 714 mmHg 88%
08:00 +1°C° 0 mm 2 mps 713 mmHg 90%
09:00 +2°C° 0 mm 2 mps 713 mmHg 91%
10:00 +3°C° 0 mm 2 mps 713 mmHg 93%
11:00 +3°C° 0 mm 2 mps 713 mmHg 94%
12:00 +3°C° 0 mm 2 mps 713 mmHg 95%
13:00 +4°C° 0 mm 2 mps 713 mmHg 96%
14:00 +4°C° 0 mm 1 mps 712 mmHg 95%
15:00 +3°C° 0 mm 1 mps 712 mmHg 94%
16:00 +3°C° 0 mm 1 mps 712 mmHg 93%
17:00 +3°C° 0 mm 1 mps 712 mmHg 93%
18:00 +3°C° 0 mm 1 mps 712 mmHg 93%
19:00 +2°C° 0 mm 2 mps 712 mmHg 93%
20:00 +1°C° 0 mm 2 mps 712 mmHg 92%
21:00 +1°C° 0 mm 2 mps 712 mmHg 92%
22:00 +1°C° 0 mm 2 mps 711 mmHg 91%
23:00 +1°C° 0 mm 2 mps 711 mmHg 90%

Day after tomorrow, 22 January, Friday

Time Temperature Precipitation Wind Pressure Humidity
00:00 +1°C° 0 mm 2 mps 711 mmHg 90%
01:00 +1°C° 0 mm 3 mps 711 mmHg 89%
02:00 +1°C° 0 mm 3 mps 710 mmHg 88%
03:00 +2°C° 0 mm 3 mps 709 mmHg 88%
04:00 +1°C° 0 mm 4 mps 708 mmHg 87%
05:00 +1°C° 0 mm 4 mps 708 mmHg 88%
06:00 +2°C° 0 mm 3 mps 708 mmHg 90%
07:00 +2°C° 0 mm 3 mps 707 mmHg 91%
08:00 +1°C° 0 mm 4 mps 707 mmHg 91%
09:00 +3°C° 0 mm 4 mps 707 mmHg 91%
10:00 +2°C° 0 mm 5 mps 707 mmHg 91%
11:00 +4°C° 0 mm 4 mps 708 mmHg 92%
12:00 +4°C° 0 mm 3 mps 708 mmHg 93%
13:00 +4°C° 0 mm 3 mps 708 mmHg 94%
14:00 +3°C° 0.2 mm 3 mps 707 mmHg 94%
15:00 +4°C° 0.2 mm 2 mps 707 mmHg 94%
16:00 +4°C° 0.2 mm 2 mps 707 mmHg 94%
17:00 +3°C° 0.8 mm 2 mps 707 mmHg 95%
18:00 +4°C° 0.8 mm 1 mps 707 mmHg 96%
19:00 +4°C° 0.8 mm 1 mps 708 mmHg 96%
20:00 +4°C° 0.5 mm 1 mps 708 mmHg 96%
21:00 +4°C° 0.5 mm 1 mps 707 mmHg 96%
22:00 +4°C° 0.5 mm 1 mps 707 mmHg 97%
23:00 +4°C° 0.1 mm 1 mps 707 mmHg 96%

23 January, Saturday

Time Temperature Precipitation Wind Pressure Humidity
00:00 +4°C° 0.1 mm 1 mps 707 mmHg 96%
01:00 +4°C° 0.1 mm 1 mps 707 mmHg 96%
02:00 +4°C° 0 mm 1 mps 707 mmHg 95%
03:00 +4°C° 0 mm 1 mps 707 mmHg 95%
04:00 +4°C° 0 mm 1 mps 706 mmHg 95%
05:00 +3°C° 0 mm 2 mps 706 mmHg 95%
06:00 +2°C° 0 mm 2 mps 706 mmHg 94%
07:00 +2°C° 0 mm 2 mps 705 mmHg 94%
08:00 +3°C° 0 mm 2 mps 705 mmHg 94%
09:00 +3°C° 0 mm 2 mps 704 mmHg 94%
10:00 +4°C° 0 mm 2 mps 704 mmHg 95%
11:00 +4°C° 0.2 mm 2 mps 703 mmHg 95%
12:00 +5°C° 0.2 mm 2 mps 703 mmHg 95%
13:00 +5°C° 0.2 mm 2 mps 703 mmHg 95%
14:00 +5°C° 0.3 mm 2 mps 702 mmHg 95%
15:00 +5°C° 0.3 mm 1 mps 702 mmHg 95%
16:00 +5°C° 0.3 mm 1 mps 702 mmHg 95%
17:00 +3°C° 0.2 mm 2 mps 702 mmHg 96%
18:00 +3°C° 0.2 mm 2 mps 702 mmHg 96%
19:00 +2°C° 0.2 mm 2 mps 703 mmHg 97%
20:00 +1°C° 0.7 mm 2 mps 703 mmHg 97%
21:00 +1°C° 0.7 mm 2 mps 703 mmHg 97%
22:00 -1°C° 0.7 mm 2 mps 703 mmHg 98%
23:00 -1°C° 0.2 mm 2 mps 703 mmHg 97%

24 January, Sunday

Time Temperature Precipitation Wind Pressure Humidity
00:00 -1°C° 0.2 mm 2 mps 703 mmHg 97%
01:00 +1°C° 0.2 mm 1 mps 704 mmHg 97%
02:00 0°C° 0.1 mm 1 mps 704 mmHg 97%
03:00 0°C° 0.1 mm 1 mps 704 mmHg 96%
04:00 0°C° 0.1 mm 1 mps 704 mmHg 96%
05:00 0°C° 0.2 mm 1 mps 705 mmHg 96%
06:00 0°C° 0.2 mm 1 mps 705 mmHg 96%
07:00 0°C° 0.2 mm 1 mps 706 mmHg 96%
08:00 +1°C° 0.1 mm 1 mps 706 mmHg 94%
09:00 +1°C° 0.1 mm 1 mps 706 mmHg 92%
10:00 +1°C° 0.1 mm 1 mps 707 mmHg 90%
11:00 +1°C° 0 mm 2 mps 707 mmHg 88%
12:00 +1°C° 0 mm 2 mps 707 mmHg 85%
13:00 +2°C° 0 mm 2 mps 707 mmHg 82%
14:00 +1°C° 0 mm 2 mps 707 mmHg 83%
15:00 +1°C° 0 mm 2 mps 708 mmHg 85%
16:00 -1°C° 0 mm 2 mps 708 mmHg 86%
17:00 -1°C° 0 mm 3 mps 708 mmHg 88%
18:00 -2°C° 0 mm 3 mps 708 mmHg 89%
19:00 -2°C° 0 mm 3 mps 708 mmHg 90%
20:00 -2°C° 0 mm 3 mps 708 mmHg 90%
21:00 -4°C° 0 mm 3 mps 709 mmHg 90%
22:00 -4°C° 0 mm 3 mps 709 mmHg 90%
23:00 -3°C° 0 mm 2 mps 709 mmHg 91%

25 January, Monday

Time Temperature Precipitation Wind Pressure Humidity
00:00 -1°C° 0 mm 1 mps 709 mmHg 92%
01:00 -1°C° 0 mm 1 mps 709 mmHg 94%
02:00 -1°C° 0 mm 1 mps 709 mmHg 94%
03:00 -3°C° 0 mm 0 mps 709 mmHg 94%
04:00 -3°C° 0 mm 0 mps 709 mmHg 94%
05:00 -3°C° 0 mm 0 mps 709 mmHg 94%
06:00 -3°C° 0 mm 0 mps 709 mmHg 94%
07:00 -3°C° 0 mm 0 mps 709 mmHg 94%
08:00 -2°C° 0 mm 0 mps 709 mmHg 91%
09:00 -2°C° 0 mm 0 mps 709 mmHg 88%
10:00 -1°C° 0 mm 0 mps 710 mmHg 85%
11:00 -1°C° 0 mm 0 mps 709 mmHg 82%
12:00 +1°C° 0 mm 1 mps 709 mmHg 79%
13:00 +1°C° 0 mm 1 mps 709 mmHg 76%
14:00 0°C° 0 mm 1 mps 709 mmHg 79%
15:00 0°C° 0 mm 1 mps 709 mmHg 82%
16:00 -1°C° 0 mm 1 mps 710 mmHg 85%
17:00 -1°C° 0 mm 1 mps 710 mmHg 86%
18:00 -1°C° 0 mm 1 mps 710 mmHg 87%
19:00 -2°C° 0 mm 1 mps 710 mmHg 88%
20:00 -3°C° 0.1 mm 2 mps 710 mmHg 89%
21:00 -3°C° 0.1 mm 2 mps 710 mmHg 91%
22:00 -3°C° 0.1 mm 2 mps 710 mmHg 93%
23:00 -3°C° 0.1 mm 2 mps 710 mmHg 93%
Show more